Weather History for Bangkok (Don Mueang), Thailand

Change the Weather History Date:

Sunday, October 14, 2012

  Actual Average Record
Temperature  
Mean Temperature 87 °F -  
Max Temperature 95 °F 89 °F 95 °F (1996)
Min Temperature 79 °F 75 °F 75 °F (1999)
Cooling Degree Days 22    
Growing Degree Days 37 (Base 50)    
Moisture  
Dew Point 75 °F    
Average Humidity 67    
Maximum Humidity 84    
Minimum Humidity 46    
Precipitation  
Precipitation 0.04 in 0.15 in - ()
Sea Level Pressure  
Sea Level Pressure 29.82 in    
Wind  
Wind Speed 1 mph ()    
Max Wind Speed 15 mph    
Max Gust Speed -    
Visibility 5.3 miles    
Events Rain , Thunderstorm    
Averages and records for this station are not official NWS values.
T = Trace of Precipitation, MM = Missing Value Source: Averaged Metar Reports

Daily Weather History Graph

Daily Weather History Graph

Search for Another Location

Airport:

Trip Planner

Search our weather history database for the weather conditions in past years. The results will help you decide how hot, cold, wet, or windy it might be!

Date:

Astronomy

Oct. 14, 2012 Rise Set
Actual Time 6:08 AM ICT 5:58 PM ICT
Civil Twilight 5:46 AM ICT 6:20 PM ICT
Nautical Twilight 5:21 AM ICT 6:44 PM ICT
Astronomical Twilight 4:57 AM ICT 7:09 PM ICT
Moon 4:40 AM ICT (10/14) 4:55 PM ICT (10/14)
Length of Visible Light 12h 33m
Length of Day
11h 50m
Waning Crescent, 2% of the Moon is Illuminated
Oct 14
Waning Crescent
Oct 15
New
Oct 22
First Quarter
Oct 30
Full
Nov 7
Last Quarter

Hourly Weather History & Observations

Time (ICT) Temp. Heat Index Dew Point Humidity Pressure Visibility Wind Dir Wind Speed Gust Speed Precip Events Conditions
12:00 AM 86.0 °F 96.9 °F 77.0 °F 74% 29.86 in 3.7 mi Calm Calm - N/A   Scattered Clouds
12:30 AM 86.0 °F 96.9 °F 77.0 °F 74% 29.86 in 3.7 mi Calm Calm - N/A   Scattered Clouds
1:00 AM 85 °F - 77 °F 72% 29.85 in 4 mi Calm Calm - -   Mist
1:00 AM 86.0 °F 96.9 °F 77.0 °F 74% 29.83 in 3.7 mi Calm Calm - N/A   Scattered Clouds
1:30 AM 84.2 °F 94.1 °F 77.0 °F 79% 29.83 in 3.7 mi Calm Calm - N/A   Scattered Clouds
2:00 AM 84.2 °F 94.1 °F 77.0 °F 79% 29.80 in 3.7 mi Calm Calm - N/A   Mostly Cloudy
2:30 AM 84.2 °F 94.1 °F 77.0 °F 79% 29.80 in 3.7 mi Calm Calm - N/A   Mostly Cloudy
3:00 AM 84.2 °F 94.1 °F 77.0 °F 79% 29.80 in 3.7 mi Calm Calm - N/A   Mostly Cloudy
3:30 AM 84.2 °F 94.1 °F 77.0 °F 79% 29.80 in 3.7 mi Calm Calm - N/A   Mostly Cloudy
4:00 AM 84.2 °F 94.1 °F 77.0 °F 79% 29.80 in 3.7 mi Calm Calm - N/A   Mostly Cloudy
4:30 AM 82.4 °F 87.2 °F 71.6 °F 70% 29.83 in 5.0 mi SSE 2.3 mph - N/A   Mostly Cloudy
5:00 AM 80.6 °F 83.9 °F 69.8 °F 70% 29.83 in 5.0 mi SSW 3.5 mph - N/A Thunderstorm Thunderstorm
5:30 AM 80.6 °F 85.4 °F 73.4 °F 79% 29.83 in 5.0 mi SW 2.3 mph - N/A   Mostly Cloudy
6:00 AM 80.6 °F 84.6 °F 71.6 °F 74% 29.83 in 5.6 mi SW 2.3 mph - N/A   Mostly Cloudy
6:30 AM 80.6 °F 84.6 °F 71.6 °F 74% 29.86 in 6.2 mi Calm Calm - N/A   Mostly Cloudy
7:00 AM 80 °F - 72 °F 70% 29.87 in 6 mi Calm Calm - -   Partly Cloudy
7:00 AM 80.6 °F 84.6 °F 71.6 °F 74% 29.86 in 6.2 mi Calm Calm - N/A   Mostly Cloudy
7:30 AM 82.4 °F 88.2 °F 73.4 °F 74% 29.86 in 6.2 mi Calm Calm - N/A   Mostly Cloudy
8:00 AM 82.4 °F 89.5 °F 75.2 °F 79% 29.86 in 6.2 mi Calm Calm - N/A   Mostly Cloudy
8:30 AM 84.2 °F 90.9 °F 73.4 °F 70% 29.89 in 6.2 mi Calm Calm - N/A   Mostly Cloudy
9:00 AM 86.0 °F 93.4 °F 73.4 °F 66% 29.89 in 6.2 mi Calm Calm - N/A   Mostly Cloudy
9:30 AM 87.8 °F 95.6 °F 73.4 °F 62% 29.89 in 6.2 mi Calm Calm - N/A   Mostly Cloudy
10:00 AM 89.6 °F 98.2 °F 73.4 °F 59% 29.89 in 6.2 mi Calm Calm - N/A   Mostly Cloudy
11:00 AM 89.6 °F 98.2 °F 73.4 °F 59% 29.89 in 6.2 mi Calm Calm - N/A   Mostly Cloudy
11:30 AM 93.2 °F 105.0 °F 75.2 °F 56% 29.86 in 6.2 mi Calm Calm - N/A   Mostly Cloudy
12:00 PM 93.2 °F 105.0 °F 75.2 °F 56% 29.86 in 6.2 mi Calm Calm - N/A   Mostly Cloudy
12:30 PM 93.2 °F 105.0 °F 75.2 °F 56% 29.83 in 6.2 mi Calm Calm - N/A   Mostly Cloudy
1:00 PM 94 °F - 76 °F 46% 29.83 in 6 mi SSE 5.8 mph - -   Haze
1:00 PM 95.0 °F 107.4 °F 75.2 °F 53% 29.80 in 6.2 mi SSE 4.6 mph - N/A   Mostly Cloudy
1:30 PM 95.0 °F 107.4 °F 75.2 °F 53% 29.80 in 5.6 mi SSE 3.5 mph - N/A   Mostly Cloudy
2:00 PM 95.0 °F 107.4 °F 75.2 °F 53% 29.77 in 5.6 mi SSW 9.2 mph - N/A   Mostly Cloudy
2:30 PM 91.4 °F 100.1 °F 73.4 °F 55% 29.77 in 5.6 mi WSW 10.4 mph - N/A   Mostly Cloudy
3:00 PM 91.4 °F 100.1 °F 73.4 °F 55% 29.74 in 5.6 mi WSW 8.1 mph - N/A   Mostly Cloudy
3:30 PM 91.4 °F 100.1 °F 73.4 °F 55% 29.74 in 5.6 mi WSW 8.1 mph - N/A   Mostly Cloudy
4:00 PM 89.6 °F 98.2 °F 73.4 °F 59% 29.74 in 5.6 mi WSW 5.8 mph - N/A   Mostly Cloudy
4:30 PM 89.6 °F 98.2 °F 73.4 °F 59% 29.74 in 5.6 mi WSW 5.8 mph - N/A   Mostly Cloudy
5:00 PM 89.6 °F 98.2 °F 73.4 °F 59% 29.74 in 5.6 mi West 4.6 mph - N/A   Mostly Cloudy
5:30 PM 89.6 °F 98.2 °F 73.4 °F 59% 29.74 in 5.6 mi West 4.6 mph - N/A   Mostly Cloudy
6:00 PM 87.8 °F 97.6 °F 75.2 °F 66% 29.77 in 5.6 mi WNW 4.6 mph - N/A   Mostly Cloudy
6:30 PM 87.8 °F 97.6 °F 75.2 °F 66% 29.77 in 5.6 mi West 3.5 mph - N/A   Mostly Cloudy
7:00 PM 87 °F - 69 °F 46% 29.79 in 5 mi Calm Calm - -   Haze
7:00 PM 87.8 °F 97.6 °F 75.2 °F 66% 29.77 in 5.0 mi Calm Calm - N/A   Mostly Cloudy
7:30 PM 87.8 °F 97.6 °F 75.2 °F 66% 29.80 in 5.0 mi Calm Calm - N/A   Mostly Cloudy
8:00 PM 86.0 °F 95.1 °F 75.2 °F 70% 29.83 in 5.0 mi Calm Calm - N/A   Mostly Cloudy
8:30 PM 86.0 °F 95.1 °F 75.2 °F 70% 29.83 in 5.0 mi Calm Calm - N/A   Mostly Cloudy
9:00 PM 86.0 °F 95.1 °F 75.2 °F 70% 29.83 in 5.0 mi SE 15.0 mph - N/A Thunderstorm Thunderstorm
9:30 PM 84.2 °F 94.1 °F 77.0 °F 79% 29.86 in 5.0 mi Calm Calm - N/A Rain Light Rain
10:00 PM 86.0 °F 95.1 °F 75.2 °F 70% 29.86 in 5.6 mi Calm Calm - N/A   Mostly Cloudy
10:30 PM 86.0 °F 95.1 °F 75.2 °F 70% 29.86 in 5.6 mi Calm Calm - N/A   Mostly Cloudy
11:00 PM 84.2 °F 94.1 °F 77.0 °F 79% 29.86 in 5.6 mi Calm Calm - N/A   Mostly Cloudy
11:30 PM 82.4 °F 90.9 °F 77.0 °F 84% 29.86 in 5.0 mi Calm Calm - N/A   Mostly Cloudy